[[{"header":{"parameterUnit":"m.s-1","parameterCategory":1,"la1":30.2991,"la2":30.254,"lo1":-89.0895,"lo2":-89.0444,"dy":0.0017,"dx":0.0017,"nx":28,"ny":28,"refTime":"2024-06-06T09:00:00:Z","depth":0,"parameterNumber":2,"parameterNumberName":"U-component_of_WINDS"},"data":[0,0,0,0,0,0,0,0,0,0,0,0,0,0,0,0,0,0,0,0,0,0,0,0,0,0,0,0,0,0,0,0,0,0,0,0,0,0,0,0,0,0,0,0,0,0,0,0,0,0,0,0,0,0,0,0,0,0,3.4478,3.4479,0,3.4566,3.4567,3.4568,3.4535,3.4533,3.4531,3.4529,3.4616,3.462,3.4624,0,0,0,0,0,0,0,0,0,0,0,0,0,3.4276,3.428,3.4478,3.4479,3.448,3.4565,3.4567,3.4568,3.4535,3.4533,3.453,3.4528,3.4615,3.462,3.4625,0,0,0,0,0,0,0,0,0,0,0,0,0,3.4364,3.4281,3.4477,3.4474,3.4474,3.4565,3.4567,3.4568,3.4535,3.4532,3.4529,3.4527,3.4613,3.4619,3.4626,3.4725,0,0,3.4645,3.4648,0,0,0,0,0,0,0,0,3.4359,3.4371,3.4473,3.4474,3.4475,3.4536,3.4528,3.4621,3.4536,3.4512,3.4529,3.4525,3.4592,3.46,3.4623,3.4729,3.4732,3.4645,3.4649,3.4652,3.4654,0,0,0,0,0,0,0,3.4353,3.4367,3.4512,3.4475,3.4476,3.4466,3.4475,3.4545,3.4568,3.4514,3.4512,3.4523,3.4592,3.4617,3.4625,3.4734,3.4645,3.4651,3.4655,3.4657,3.492,3.4923,0,0,0,0,0,0,3.4347,3.4362,3.4509,3.4515,3.4408,3.4472,3.4482,3.4519,3.4567,3.4571,3.4525,3.4521,3.4607,3.4617,3.4627,3.4743,3.4652,3.4658,3.4661,3.4917,3.4921,3.4925,0,0,0,0,0,0,3.4343,3.436,3.4506,3.4438,3.4456,3.4479,3.4521,3.4523,3.4548,3.4575,3.4579,3.4547,3.4605,3.4619,3.47,3.4746,3.4661,3.4666,3.4913,3.4918,3.4923,3.4977,0,0,0,0,0,0,3.4337,3.4359,3.4398,3.4439,3.446,3.4578,3.4524,3.4527,3.4559,3.4554,3.4597,3.4601,3.4604,3.4691,3.4706,3.4753,3.4671,3.4909,3.4916,3.4921,3.4971,3.4983,3.4993,0,0,0,0,0,3.433,3.441,3.44,3.4418,3.4509,3.4581,3.4593,3.4596,3.4563,3.4601,3.4618,3.4599,3.4739,3.4699,3.4716,3.4766,3.4906,3.4914,3.4921,3.4966,3.4981,3.4993,0,0,0,0,0,0,3.4374,3.4416,3.4405,3.4502,3.4538,3.4576,3.4624,3.4612,3.4657,3.4651,3.4652,3.4662,3.4744,3.4764,3.4719,3.4862,3.4817,3.4828,3.4846,3.486,3.4871,3.4863,3.4676,0,0,0,0,0,3.4395,3.4451,3.4484,3.4566,3.4585,3.4601,3.4633,3.4632,3.4669,3.4684,3.4708,3.4744,3.4795,3.4829,3.4878,3.4974,3.4981,3.5016,3.5028,3.5036,3.5045,3.5093,3.5108,3.4948,3.4948,3.4948,0,0,3.4439,3.4468,3.4504,3.4575,3.4604,3.4659,3.4615,3.4677,3.4717,3.4694,3.4771,3.4789,3.4829,3.4917,3.4957,3.4935,3.5091,3.5046,3.5053,3.5056,3.5102,3.5117,3.5131,3.4953,3.4952,3.4952,0,0,3.4546,3.4576,3.4645,3.4674,3.4717,3.4727,3.4744,3.4783,3.4794,3.4872,3.4854,3.4902,3.4992,3.502,3.5046,3.5161,3.5144,3.5177,3.5234,3.5281,3.5293,3.5305,3.5342,3.5356,3.5186,3.5187,3.5187,0,3.4594,3.4679,3.4682,3.4745,3.4775,3.4757,3.4825,3.4853,3.491,3.493,3.4905,3.5015,3.5041,3.5133,3.5161,3.5184,3.5201,3.5171,3.5292,3.5303,3.5313,3.5349,3.5363,3.519,3.519,3.5189,3.5189,0,3.4735,3.4794,3.4844,3.4899,3.4936,3.5001,3.5012,3.5048,3.5043,3.5055,3.5133,3.5163,3.5216,3.5239,3.5235,3.533,3.5314,3.5291,3.5246,3.5332,3.5365,3.5379,3.5195,3.5194,3.5193,3.5192,0,0,3.4872,3.4926,3.4945,3.4967,3.5013,3.5057,3.5121,3.5173,3.5202,3.5242,3.5293,3.5368,3.5346,3.5375,3.5374,3.5416,3.5501,3.5387,3.5388,3.5404,3.5602,3.5617,3.5633,3.5491,3.5493,3.5495,3.5597,0,3.498,3.5092,3.5095,3.5196,3.5249,3.5231,3.5285,3.5318,3.533,3.5375,3.5389,3.544,3.5409,3.5426,3.5467,3.5482,3.554,3.5475,3.5535,3.5537,3.5522,3.5651,3.5668,3.5763,3.5611,3.5613,3.5615,0,3.5121,3.5164,3.5271,3.5305,3.5327,3.5377,3.5423,3.5467,3.5502,3.5508,3.554,3.5533,3.5594,3.5549,3.5632,3.5588,3.5613,3.5624,3.5627,3.5631,3.5579,3.5655,3.5794,3.5806,3.5636,3.5634,3.5633,0,3.5206,3.5291,3.5365,3.5385,3.5429,3.5463,3.5482,3.5515,3.5545,3.5585,3.5604,3.5651,3.5676,3.5712,3.5716,3.5683,3.5798,3.5755,3.5802,3.5802,3.5826,3.5823,3.5967,3.5847,3.5847,3.5846,3.5846,0,3.5325,3.5389,3.5403,3.5448,3.5519,3.5521,3.5591,3.5607,3.5636,3.5682,3.567,3.5713,3.5718,3.5762,3.5766,3.5832,3.5844,3.5848,3.5848,3.5848,3.5847,3.5862,3.5854,3.585,3.5849,3.5849,3.5848,0,3.543,3.5442,3.5521,3.5555,3.5565,3.5615,3.5643,3.5685,3.5696,3.5754,3.5768,3.5785,3.5835,3.5844,3.5904,3.5906,3.5984,3.5979,3.5972,3.597,3.6016,3.601,3.6172,3.6192,3.6062,3.6063,3.6064,0,3.5504,3.5553,3.5592,3.5622,3.5643,3.5692,3.5722,3.5726,3.5758,3.58,3.5836,3.5886,3.5925,3.6007,3.6023,3.6068,3.6061,3.6115,3.6068,3.6065,3.6058,3.6053,3.6056,3.6123,3.6124,3.6125,3.6126,0,3.5631,3.5634,3.5679,3.5725,3.5761,3.5798,3.5832,3.5857,3.5865,3.5901,3.5953,3.5983,3.6044,3.6092,3.6136,3.6154,3.614,3.6141,3.6154,3.6153,3.6145,3.6146,3.5993,3.6137,3.6136,3.6135,3.6135,3.6134,3.572,3.5762,3.5795,3.5844,3.587,3.5902,3.5942,3.5958,3.6001,3.605,3.605,3.6106,3.6137,3.6195,3.6215,3.6257,3.624,3.626,3.6264,3.6268,3.627,3.6141,3.6266,3.6266,3.6265,3.6265,3.6265,0,3.5844,3.5864,3.591,3.5957,3.5995,3.5981,3.6018,3.605,3.6099,3.613,3.6169,3.6226,3.6272,3.6292,3.6336,3.6366,3.6361,3.6377,3.6373,3.6377,3.6285,3.6268,3.6381,3.6381,3.6381,3.638,3.638,3.638,3.5912,3.5981,3.5987,3.6067,3.6086,3.6141,3.6163,3.6191,3.6215,3.628,3.6318,3.6331,3.6356,3.6402,3.6443,3.6447,3.6462,3.6481,3.6482,3.6396,3.6384,3.6373,3.6356,3.6485,3.6485,3.657,3.6571,3.6571]},{"header":{"parameterUnit":"m.s-1","parameterCategory":1,"la1":30.2991,"la2":30.254,"lo1":-89.0895,"lo2":-89.0444,"dy":0.0017,"dx":0.0017,"nx":28,"ny":28,"refTime":"2024-06-06T09:00:00:Z","depth":0,"parameterNumber":3,"parameterNumberName":"V-component_of_WINDS"},"data":[0,0,0,0,0,0,0,0,0,0,0,0,0,0,0,0,0,0,0,0,0,0,0,0,0,0,0,0,0,0,0,0,0,0,0,0,0,0,0,0,0,0,0,0,0,0,0,0,0,0,0,0,0,0,0,0,0,0,3.0238,3.024,0,3.0394,3.0395,3.0397,3.04,3.0398,3.0397,3.0395,3.0551,3.0557,3.0563,0,0,0,0,0,0,0,0,0,0,0,0,0,2.9939,2.9944,3.0238,3.024,3.0242,3.0393,3.0396,3.0398,3.0401,3.0398,3.0396,3.0394,3.0549,3.0556,3.0563,0,0,0,0,0,0,0,0,0,0,0,0,0,3.0079,2.9946,3.0238,3.0262,3.0266,3.0393,3.0396,3.0398,3.0401,3.0398,3.0395,3.0393,3.0547,3.0555,3.0564,3.0677,0,0,3.0591,3.0595,0,0,0,0,0,0,0,0,3.0071,3.009,3.0256,3.026,3.0265,3.0375,3.0347,3.0492,3.0402,3.035,3.0395,3.0391,3.0494,3.0507,3.0543,3.0684,3.0691,3.0592,3.0598,3.0601,3.0604,0,0,0,0,0,0,0,3.0061,3.0083,3.03,3.0259,3.0264,3.0263,3.028,3.0375,3.0436,3.0354,3.0355,3.0373,3.0496,3.0534,3.0547,3.0693,3.0592,3.06,3.0605,3.0609,3.0932,3.0935,0,0,0,0,0,0,3.0047,3.0075,3.0295,3.0304,3.0159,3.0271,3.029,3.0342,3.0435,3.0447,3.0375,3.0373,3.052,3.0536,3.0552,3.0689,3.0601,3.061,3.0615,3.0929,3.0933,3.0936,0,0,0,0,0,0,3.0041,3.0067,3.0288,3.019,3.0218,3.0279,3.0338,3.0347,3.0385,3.0452,3.0462,3.0403,3.0519,3.054,3.0646,3.0694,3.0614,3.0622,3.0925,3.093,3.0935,3.0964,0,0,0,0,0,0,3.0032,3.0065,3.011,3.0191,3.0223,3.0381,3.0341,3.0352,3.0401,3.0399,3.0481,3.0491,3.0518,3.0632,3.0654,3.0705,3.0629,3.0921,3.0927,3.0933,3.0959,3.097,3.0978,0,0,0,0,0,3.0022,3.0112,3.0112,3.0138,3.0281,3.0384,3.0402,3.0432,3.0405,3.0449,3.0492,3.0489,3.0685,3.0643,3.0668,3.0722,3.0918,3.0925,3.0933,3.0955,3.0968,3.0978,0,0,0,0,0,0,3.0034,3.0123,3.0124,3.0243,3.0306,3.0384,3.0442,3.0445,3.0516,3.0511,3.0544,3.0562,3.0667,3.0705,3.0657,3.0835,3.0798,3.0811,3.0807,3.0819,3.0829,3.0817,3.0636,0,0,0,0,0,3.0051,3.0128,3.0201,3.0299,3.033,3.038,3.0426,3.0444,3.051,3.0536,3.0586,3.0649,3.0724,3.0774,3.0847,3.0964,3.0981,3.1014,3.1023,3.1031,3.1041,3.1104,3.1119,3.096,3.096,3.096,0,0,3.0086,3.0144,3.0191,3.0303,3.0354,3.0431,3.0403,3.0487,3.0544,3.0548,3.0652,3.069,3.0762,3.0874,3.0925,3.0909,3.1088,3.104,3.1046,3.1052,3.1113,3.1128,3.1141,3.0965,3.0964,3.0963,0,0,3.019,3.0242,3.0329,3.038,3.0457,3.0489,3.0509,3.0587,3.0613,3.0717,3.0721,3.0788,3.0919,3.097,3.1012,3.1132,3.1131,3.1155,3.1205,3.1266,3.1278,3.1289,3.1331,3.1345,3.1165,3.1165,3.1165,0,3.0224,3.0342,3.0373,3.0457,3.0505,3.0512,3.0599,3.0646,3.0743,3.0775,3.0755,3.0917,3.0966,3.1089,3.1118,3.1152,3.1175,3.1146,3.1274,3.1286,3.1296,3.1336,3.1352,3.1167,3.1167,3.1167,3.1167,0,3.0379,3.0461,3.0521,3.0615,3.067,3.0755,3.0796,3.0847,3.0859,3.0893,3.0997,3.1056,3.114,3.117,3.1183,3.1294,3.1281,3.1267,3.1231,3.1313,3.1351,3.1367,3.1171,3.117,3.1169,3.1169,0,0,3.0497,3.0605,3.0626,3.0668,3.0752,3.0815,3.0898,3.0982,3.1024,3.109,3.116,3.1269,3.1256,3.1304,3.1322,3.1375,3.1464,3.1354,3.1356,3.1372,3.1588,3.1597,3.1615,3.1463,3.1466,3.1469,3.1581,0,3.061,3.076,3.0789,3.0919,3.0994,3.1,3.1073,3.1131,3.1164,3.1231,3.1266,3.1343,3.132,3.1349,3.1402,3.1442,3.1507,3.1434,3.1527,3.153,3.1509,3.1635,3.1646,3.175,3.1596,3.1599,3.1601,0,3.0762,3.0831,3.0969,3.1041,3.1073,3.1138,3.1215,3.128,3.1345,3.1364,3.1417,3.1428,3.1513,3.1472,3.1589,3.1538,3.1578,3.1602,3.1607,3.1617,3.1571,3.1648,3.1784,3.1799,3.1625,3.1623,3.1621,0,3.0832,3.096,3.1059,3.1094,3.1181,3.1226,3.1264,3.1326,3.1373,3.144,3.1471,3.1546,3.1587,3.1645,3.1675,3.1643,3.1788,3.175,3.1806,3.1805,3.1837,3.1835,3.1981,3.1863,3.1862,3.1862,3.1862,0,3.0955,3.1039,3.1091,3.1152,3.1245,3.1276,3.1366,3.1403,3.1458,3.1524,3.1534,3.1596,3.1632,3.1698,3.1722,3.1814,3.1833,3.185,3.1855,3.1849,3.1847,3.1876,3.1869,3.1866,3.1865,3.1865,3.1864,0,3.1051,3.109,3.1197,3.127,3.129,3.1355,3.1416,3.1474,3.1506,3.159,3.1611,3.166,3.1739,3.1774,3.1871,3.1887,3.1991,3.1992,3.197,3.1972,3.2025,3.2019,3.2194,3.2218,3.2085,3.2086,3.2087,0,3.1126,3.1191,3.127,3.1316,3.1355,3.1428,3.1476,3.1507,3.1557,3.1634,3.1682,3.1761,3.1826,3.195,3.1994,3.2067,3.2069,3.2125,3.208,3.2071,3.2069,3.2064,3.207,3.2133,3.2135,3.2136,3.2137,0,3.1256,3.1272,3.1341,3.1417,3.1474,3.1535,3.1595,3.1631,3.1671,3.1726,3.1806,3.1857,3.1955,3.2032,3.2108,3.2145,3.2147,3.215,3.2167,3.2161,3.2146,3.2154,3.1992,3.2146,3.2145,3.2145,3.2144,3.2144,3.1344,3.1401,3.1465,3.1541,3.1589,3.1644,3.1702,3.174,3.1808,3.1891,3.1905,3.199,3.205,3.2152,3.2192,3.2258,3.2244,3.2268,3.2274,3.228,3.2283,3.2135,3.2272,3.2271,3.2271,3.2271,3.2271,0,3.1473,3.1514,3.1585,3.1668,3.1727,3.1724,3.1789,3.1839,3.1914,3.1971,3.2034,3.2125,3.2199,3.2248,3.2322,3.2366,3.2368,3.2384,3.2381,3.2389,3.2291,3.2269,3.238,3.238,3.238,3.238,3.238,3.238,3.1548,3.1644,3.1666,3.1784,3.1824,3.1909,3.1946,3.1995,3.2041,3.2142,3.2204,3.2236,3.2288,3.2367,3.2434,3.2446,3.2473,3.2489,3.25,3.2408,3.2396,3.2385,3.2365,3.2495,3.2495,3.2593,3.2594,3.2595]}]]